Weather History for Eureka, NU

Change the Weather History Date:

Saturday, September 14, 2013

  Actual Average Record
Temperature  
Mean Temperature 12 °F -  
Max Temperature 14 °F 11 °F 37 °F (1998)
Min Temperature 8 °F -1 °F 1 °F (1996)
Degree Days  
Heating Degree Days 53    
Moisture  
Dew Point 9 °F    
Average Humidity 82    
Maximum Humidity 86    
Minimum Humidity 68    
Precipitation  
Precipitation 0.00 in 0.01 in - ()
Sea Level Pressure  
Sea Level Pressure 30.08 in    
Wind  
Wind Speed 2 mph ()    
Max Wind Speed 8 mph    
Max Gust Speed -    
Visibility 15.0 miles    
Events      
Averages and records for this station are not official NWS values.
T = Trace of Precipitation, MM = Missing Value Source: Averaged Metar Reports

Daily Weather History Graph

Daily Weather History Graph

Search for Another Location

Airport:

Trip Planner

Search our weather history database for the weather conditions in past years. The results will help you decide how hot, cold, wet, or windy it might be!

Date:

Astronomy

Sep. 14, 2013 Rise Set
Actual Time 5:03 AM CDT 8:09 PM CDT
Civil Twilight 2:05 AM CDT 10:53 PM CDT
Nautical Twilight Sun does not rise Sun does not rise
Astronomical Twilight Sun does not rise Sun does not rise
Moon No Moon Rise No Moon Set
Length of Visible Light 20h 48m
Length of Day
15h 05m
Waxing Gibbous, 72% of the Moon is Illuminated
Sep 14
Waxing Gibbous
Sep 19
Full
Sep 26
Last Quarter
Oct 4
New
Oct 11
First Quarter

Hourly Weather History & Observations

Time (CDT) Temp. Windchill Dew Point Humidity Pressure Visibility Wind Dir Wind Speed Gust Speed Precip Events Conditions
12:00 AM 19.4 °F - 14.0 °F 80% 29.99 in 15.0 mi Calm Calm - N/A   Mostly Cloudy
1:00 AM 18 °F - 14 °F 78% 30.00 in 15 mi West 2.3 mph - -   Scattered Clouds
1:00 AM 17.6 °F 12.3 °F 14.0 °F 86% 30.00 in 15.0 mi West 3.5 mph - N/A   Mostly Cloudy
2:00 AM 19.4 °F 14.3 °F 14.0 °F 80% 30.00 in 15.0 mi ENE 3.5 mph - N/A   Partly Cloudy
3:00 AM 17.6 °F 7.3 °F 10.4 °F 73% 30.01 in 15.0 mi North 8.1 mph - N/A   Partly Cloudy
4:00 AM 19.4 °F 14.3 °F 10.4 °F 68% 30.03 in 15.0 mi North 3.5 mph - N/A   Partly Cloudy
5:00 AM 14.0 °F 8.2 °F 10.4 °F 86% 30.04 in 15.0 mi NE 3.5 mph - N/A   Partly Cloudy
6:00 AM 14.0 °F 8.2 °F 8.6 °F 79% 30.05 in 15.0 mi SSE 3.5 mph - N/A   Partly Cloudy
7:00 AM 13 °F - 9 °F 78% 30.05 in 15 mi ESE 3.5 mph - -   Scattered Clouds
7:00 AM 14.0 °F 8.2 °F 8.6 °F 79% 30.05 in 15.0 mi ESE 3.5 mph - N/A   Partly Cloudy
8:00 AM 12.2 °F - 6.8 °F 79% 30.06 in 15.0 mi East 2.3 mph - N/A   Partly Cloudy
9:00 AM 12.2 °F - 8.6 °F 85% 30.06 in 15.0 mi Calm Calm - N/A   Partly Cloudy
10:00 AM 10.4 °F - 6.8 °F 85% 30.07 in 15.0 mi Calm Calm - N/A   Partly Cloudy
11:00 AM 10.4 °F - 6.8 °F 85% 30.08 in 15.0 mi Calm Calm - N/A   Clear
12:00 PM 12.2 °F - 8.6 °F 85% 30.08 in 15.0 mi Calm Calm - N/A   Clear
1:00 PM 12 °F - 8 °F 78% 30.09 in 15 mi Calm Calm - -   Scattered Clouds
1:00 PM 12.2 °F - 8.6 °F 85% 30.09 in 15.0 mi Calm Calm - N/A   Partly Cloudy
2:00 PM 12.2 °F - 8.6 °F 85% 30.10 in 15.0 mi Calm Calm - N/A   Clear
3:00 PM 14.0 °F - 10.4 °F 86% 30.11 in 15.0 mi Calm Calm - N/A   Clear
4:00 PM 14.0 °F - 10.4 °F 86% 30.11 in 15.0 mi Calm Calm - N/A   Clear
5:00 PM 14.0 °F - 10.4 °F 86% 30.12 in 15.0 mi Calm Calm - N/A   Clear
6:00 PM 12.2 °F 6.1 °F 8.6 °F 85% 30.12 in 15.0 mi SE 3.5 mph - N/A   Partly Cloudy
7:00 PM 13 °F - 9 °F 77% 30.13 in 15 mi SE 2.3 mph - -   Scattered Clouds
7:00 PM 12.2 °F - 8.6 °F 85% 30.13 in 15.0 mi ESE 2.3 mph - N/A   Partly Cloudy
8:00 PM 12.2 °F - 8.6 °F 85% 30.14 in 15.0 mi East 2.3 mph - N/A   Partly Cloudy
9:00 PM 10.4 °F - 6.8 °F 85% 30.14 in 15.0 mi Calm Calm - N/A   Partly Cloudy
10:00 PM 10.4 °F 4.0 °F 6.8 °F 85% 30.15 in 15.0 mi SE 3.5 mph - N/A   Partly Cloudy
11:00 PM 8.6 °F - 5.0 °F 85% 30.16 in 15.0 mi ESE 2.3 mph - N/A   Partly Cloudy